• In Hungary
  • List of Countries
  • For 7 days
  • Water Temperature
  • Satellite Maps
  • Weather Map
  • News
  • Weather Widgets
  • user-avatar
    Login

    Hourly Weather Muya

    Today, 22 September, Saturday

    Time Temperature Precipitation Wind Pressure Humidity
    00:00 +5°C° 0 mm 1 mps 720 mmHg 81%
    01:00 +5°C° 0 mm 1 mps 720 mmHg 82%
    02:00 +4°C° 0 mm 1 mps 720 mmHg 83%
    03:00 +4°C° 0 mm 1 mps 720 mmHg 84%
    04:00 +4°C° 0 mm 1 mps 721 mmHg 84%
    05:00 +4°C° 0 mm 1 mps 721 mmHg 85%
    06:00 +5°C° 0 mm 1 mps 721 mmHg 81%
    07:00 +6°C° 0 mm 1 mps 721 mmHg 78%
    08:00 +6°C° 0 mm 2 mps 722 mmHg 74%
    09:00 +8°C° 0 mm 2 mps 722 mmHg 70%
    10:00 +9°C° 0 mm 2 mps 721 mmHg 66%
    11:00 +11°C° 0 mm 1 mps 721 mmHg 62%
    12:00 +12°C° 0 mm 2 mps 721 mmHg 60%
    13:00 +12°C° 0 mm 2 mps 721 mmHg 58%
    14:00 +12°C° 0 mm 2 mps 721 mmHg 57%
    15:00 +12°C° 0 mm 2 mps 721 mmHg 59%
    16:00 +12°C° 0 mm 2 mps 721 mmHg 60%
    17:00 +10°C° 0 mm 2 mps 721 mmHg 62%
    18:00 +10°C° 0 mm 1 mps 721 mmHg 67%
    19:00 +8°C° 0 mm 1 mps 721 mmHg 73%
    20:00 +6°C° 0 mm 1 mps 721 mmHg 78%
    21:00 +6°C° 0 mm 1 mps 722 mmHg 79%
    22:00 +5°C° 0 mm 1 mps 722 mmHg 79%
    23:00 +5°C° 0 mm 1 mps 722 mmHg 80%

    Tomorrow, 23 September, Sunday

    Time Temperature Precipitation Wind Pressure Humidity
    00:00 +4°C° 0 mm 1 mps 722 mmHg 81%
    01:00 +4°C° 0 mm 1 mps 722 mmHg 81%
    02:00 +4°C° 0 mm 1 mps 722 mmHg 81%
    03:00 +4°C° 0 mm 1 mps 722 mmHg 82%
    04:00 +4°C° 0 mm 1 mps 722 mmHg 82%
    05:00 +3°C° 0 mm 1 mps 722 mmHg 82%
    06:00 +4°C° 0 mm 0 mps 722 mmHg 77%
    07:00 +5°C° 0 mm 0 mps 722 mmHg 71%
    08:00 +6°C° 0 mm 0 mps 722 mmHg 66%
    09:00 +8°C° 0 mm 0 mps 722 mmHg 60%
    10:00 +11°C° 0 mm 1 mps 721 mmHg 55%
    11:00 +12°C° 0 mm 1 mps 721 mmHg 49%
    12:00 +13°C° 0 mm 1 mps 720 mmHg 48%
    13:00 +14°C° 0 mm 1 mps 720 mmHg 46%
    14:00 +14°C° 0 mm 1 mps 720 mmHg 44%
    15:00 +14°C° 0 mm 1 mps 719 mmHg 48%
    16:00 +13°C° 0 mm 1 mps 719 mmHg 52%
    17:00 +13°C° 0 mm 1 mps 719 mmHg 56%
    18:00 +11°C° 0 mm 1 mps 719 mmHg 61%
    19:00 +8°C° 0 mm 0 mps 719 mmHg 66%
    20:00 +6°C° 0 mm 0 mps 719 mmHg 71%
    21:00 +5°C° 0 mm 0 mps 719 mmHg 72%
    22:00 +5°C° 0 mm 0 mps 719 mmHg 72%
    23:00 +5°C° 0 mm 0 mps 719 mmHg 73%

    Day after tomorrow, 24 September, Monday

    Time Temperature Precipitation Wind Pressure Humidity
    00:00 +5°C° 0 mm 0 mps 719 mmHg 73%
    01:00 +4°C° 0 mm 0 mps 719 mmHg 74%
    02:00 +4°C° 0 mm 0 mps 719 mmHg 74%
    03:00 +4°C° 0 mm 0 mps 718 mmHg 74%
    04:00 +4°C° 0 mm 0 mps 718 mmHg 75%
    05:00 +5°C° 0 mm 1 mps 718 mmHg 75%
    06:00 +6°C° 0 mm 1 mps 718 mmHg 70%
    07:00 +7°C° 0 mm 0 mps 719 mmHg 65%
    08:00 +8°C° 0 mm 0 mps 719 mmHg 61%
    09:00 +11°C° 0 mm 1 mps 718 mmHg 55%
    10:00 +12°C° 0 mm 1 mps 718 mmHg 50%
    11:00 +14°C° 0 mm 1 mps 718 mmHg 45%
    12:00 +14°C° 0 mm 1 mps 717 mmHg 43%
    13:00 +15°C° 0 mm 1 mps 717 mmHg 42%
    14:00 +15°C° 0 mm 1 mps 716 mmHg 40%
    15:00 +15°C° 0 mm 1 mps 716 mmHg 44%
    16:00 +14°C° 0 mm 1 mps 716 mmHg 49%
    17:00 +13°C° 0 mm 1 mps 716 mmHg 53%
    18:00 +11°C° 0 mm 1 mps 716 mmHg 58%
    19:00 +9°C° 0 mm 1 mps 716 mmHg 64%
    20:00 +7°C° 0 mm 1 mps 716 mmHg 69%
    21:00 +7°C° 0 mm 1 mps 716 mmHg 70%
    22:00 +7°C° 0 mm 1 mps 716 mmHg 71%
    23:00 +6°C° 0 mm 1 mps 716 mmHg 72%

    25 September, Tuesday

    Time Temperature Precipitation Wind Pressure Humidity
    00:00 +6°C° 0 mm 1 mps 716 mmHg 72%
    01:00 +6°C° 0 mm 1 mps 716 mmHg 73%
    02:00 +6°C° 0 mm 1 mps 716 mmHg 73%
    03:00 +5°C° 0 mm 1 mps 716 mmHg 74%
    04:00 +5°C° 0 mm 1 mps 716 mmHg 75%
    05:00 +5°C° 0 mm 1 mps 716 mmHg 76%
    06:00 +6°C° 0 mm 1 mps 716 mmHg 71%
    07:00 +8°C° 0 mm 1 mps 716 mmHg 67%
    08:00 +9°C° 0 mm 1 mps 717 mmHg 63%
    09:00 +10°C° 0 mm 1 mps 716 mmHg 58%
    10:00 +12°C° 0 mm 1 mps 716 mmHg 54%
    11:00 +14°C° 0 mm 1 mps 716 mmHg 49%
    12:00 +14°C° 0 mm 1 mps 715 mmHg 48%
    13:00 +15°C° 0 mm 1 mps 715 mmHg 46%
    14:00 +15°C° 0 mm 1 mps 715 mmHg 45%
    15:00 +15°C° 0 mm 1 mps 715 mmHg 49%
    16:00 +14°C° 0 mm 1 mps 714 mmHg 53%
    17:00 +13°C° 0 mm 1 mps 714 mmHg 57%
    18:00 +11°C° 0 mm 1 mps 714 mmHg 63%
    19:00 +9°C° 0 mm 1 mps 714 mmHg 69%
    20:00 +6°C° 0 mm 0 mps 714 mmHg 75%
    21:00 +7°C° 0 mm 1 mps 714 mmHg 76%
    22:00 +7°C° 0 mm 1 mps 714 mmHg 77%
    23:00 +7°C° 0 mm 1 mps 714 mmHg 78%

    26 September, Wednesday

    Time Temperature Precipitation Wind Pressure Humidity
    00:00 +7°C° 0 mm 1 mps 714 mmHg 79%
    01:00 +6°C° 0 mm 1 mps 714 mmHg 79%
    02:00 +6°C° 0 mm 1 mps 714 mmHg 80%
    03:00 +6°C° 0 mm 1 mps 714 mmHg 80%
    04:00 +6°C° 0 mm 1 mps 714 mmHg 81%
    05:00 +6°C° 0 mm 1 mps 714 mmHg 82%
    06:00 +7°C° 0 mm 1 mps 714 mmHg 77%
    07:00 +8°C° 0 mm 1 mps 714 mmHg 72%
    08:00 +9°C° 0 mm 1 mps 714 mmHg 68%
    09:00 +11°C° 0 mm 1 mps 714 mmHg 63%
    10:00 +12°C° 0 mm 2 mps 713 mmHg 58%
    11:00 +14°C° 0 mm 2 mps 712 mmHg 53%
    12:00 +14°C° 0 mm 2 mps 712 mmHg 51%
    13:00 +15°C° 0 mm 2 mps 711 mmHg 49%
    14:00 +15°C° 0 mm 2 mps 711 mmHg 47%
    15:00 +15°C° 0 mm 2 mps 711 mmHg 52%
    16:00 +14°C° 0 mm 2 mps 711 mmHg 57%
    17:00 +13°C° 0 mm 1 mps 711 mmHg 61%
    18:00 +12°C° 0 mm 1 mps 711 mmHg 67%
    19:00 +10°C° 0 mm 1 mps 711 mmHg 72%
    20:00 +9°C° 0 mm 1 mps 711 mmHg 77%
    21:00 +8°C° 0 mm 1 mps 711 mmHg 78%
    22:00 +8°C° 0 mm 1 mps 711 mmHg 80%
    23:00 +8°C° 0 mm 1 mps 711 mmHg 81%

    27 September, Thursday

    Time Temperature Precipitation Wind Pressure Humidity
    00:00 +8°C° 0 mm 1 mps 711 mmHg 82%
    01:00 +7°C° 0 mm 1 mps 711 mmHg 83%
    02:00 +7°C° 0 mm 1 mps 711 mmHg 85%
    03:00 +7°C° 0.1 mm 1 mps 711 mmHg 85%
    04:00 +7°C° 0.1 mm 1 mps 711 mmHg 86%
    05:00 +7°C° 0.1 mm 1 mps 711 mmHg 86%
    06:00 +8°C° 0.2 mm 1 mps 711 mmHg 84%
    07:00 +8°C° 0.2 mm 1 mps 711 mmHg 82%
    08:00 +9°C° 0.2 mm 1 mps 711 mmHg 80%
    09:00 +10°C° 0.3 mm 1 mps 711 mmHg 78%
    10:00 +10°C° 0.3 mm 1 mps 710 mmHg 75%
    11:00 +11°C° 0.3 mm 1 mps 710 mmHg 72%
    12:00 +11°C° 0.3 mm 1 mps 710 mmHg 71%
    13:00 +11°C° 0.3 mm 1 mps 710 mmHg 71%
    14:00 +11°C° 0.3 mm 1 mps 709 mmHg 71%
    15:00 +10°C° 0.2 mm 1 mps 710 mmHg 71%
    16:00 +9°C° 0.2 mm 2 mps 710 mmHg 72%
    17:00 +9°C° 0.2 mm 2 mps 710 mmHg 72%
    18:00 +8°C° 0.2 mm 2 mps 711 mmHg 76%
    19:00 +7°C° 0.2 mm 2 mps 712 mmHg 79%
    20:00 +6°C° 0.2 mm 2 mps 712 mmHg 82%
    21:00 +5°C° 0.1 mm 2 mps 713 mmHg 82%
    22:00 +5°C° 0.1 mm 2 mps 713 mmHg 83%
    23:00 +4°C° 0.1 mm 3 mps 714 mmHg 83%
    Show more